SES-17

Last updated on Mon Sep 07 2026 00:03:01 GMT+0000 (Coordinated Universal Time)

1 49332U 21095A 26249.50723463 -.00000288 00000+0 00000+0 0 9998 2 49332 0.0278 56.4919 0001024 121.4784 283.1283 1.00268864 18672
UTC large
Height (km)
Speed (km/s)
/
Latitude / Longitude
Inclination (degrees)
Orbital Period (minutes)
Azimuth
Elevation
Range (km)
Doppler Factor

Next 0 passes for location: London (51.5072 / 0.1276)

No passes found over London.